Home   Weather   Skjervøy   Past weeks
Flag for Norway

Past Weather in Skjervøy, Norway — Yesterday and Last 2 Weeks

Now
32 °F

Chilly.


Feels Like: 25 °F
Forecast: 34 / 18 °F
Wind: 7 mph from West

Location: Sorkjosen

Current Time: Apr 5, 2020 at 6:04:53 pm

Latest Report: Apr 5, 2020 at 5:00 pm


Visibility: N/A

Pressure: 30.10 "Hg

Humidity: 62%

Dew Point: 20 °F

Location of SkjervøyLocation

Past Weather in Skjervøy — Graph

°F

Skjervøy Temperature Yesterday

Maximum temperature yesterday: 31 °F (at 1:00 pm)
Minimum temperature yesterday: 19 °F (at 10:00 pm)
Average temperature yesterday: 25 °F

High & Low Weather Summary for the Past Weeks

 TemperatureHumidityPressure
High47 °F (Mar 23, 1:00 pm)97% (Mar 31, 7:00 pm)30.27 "Hg (Mar 31, 7:00 pm)
Low13 °F (Apr 5, 6:00 am)44% (Mar 22, 10:00 am)28.91 "Hg (Apr 2, 11:00 pm)
Average31 °F70%29.63 "Hg
* Reported Mar 21 3:00 pm — Apr 5 4:00 pm, Skjervøy. Weather by CustomWeather, © 2020

Note: Actual official high and low records may vary slightly from our data, if they occured in-between our weather recording intervals... More about our weather records

Skjervøy Weather History for the Previous 24 Hours

Scroll right to see more
 ConditionsComfort  
Time TempWeatherWind HumidityBarometerVisibility
4:00 pm
Sun, Apr 5
33 °FChilly.6 mph57%30.09 "HgN/A
3:00 pm30 °FChilly.8 mph67%30.07 "HgN/A
2:00 pm28 °FChilly.6 mph76%30.06 "HgN/A
1:00 pm28 °FChilly.6 mph79%30.04 "HgN/A
12:00 pm28 °FChilly.6 mph65%30.03 "HgN/A
11:00 am28 °FChilly.6 mph54%30.01 "HgN/A
10:00 am26 °FChilly.6 mph58%30.00 "HgN/A
9:00 am25 °FChilly.7 mph60%29.98 "HgN/A
8:00 am23 °FCold.6 mph67%29.97 "HgN/A
7:00 am19 °FCold.2 mph73%29.96 "HgN/A
6:00 am13 °FCold.1 mph81%29.95 "HgN/A
5:00 am17 °FCold.2 mph75%29.94 "HgN/A
4:00 am18 °FCold.3 mph76%29.91 "HgN/A
3:00 am20 °FCold.2 mph72%29.90 "HgN/A
2:00 am23 °FCold.2 mph67%29.87 "HgN/A
1:00 am24 °FCold.5 mph68%29.85 "HgN/A
12:00 am26 °FChilly.5 mph58%29.82 "HgN/A
11:00 pm
Sat, Apr 4
20 °FCold.1 mph77%29.80 "HgN/A
10:00 pm19 °FCold.1 mph73%29.79 "HgN/A
9:00 pm24 °FCold.2 mph63%29.77 "HgN/A
8:00 pm25 °FChilly.3 mph66%29.74 "HgN/A
7:00 pm26 °FChilly.5 mph64%29.72 "HgN/A
6:00 pm26 °FChilly.3 mph68%29.70 "HgN/A
Weather by CustomWeather, © 2020

See weather overview

Advertising